FW7718 Weather Reports


Display with metric or nautical units.
time (UTC)temp
F
wind
direction
speed
MPH
gust
MPH
rain 1hr
in
rain 24hr
in
rain mn
in
humidity
%
barometer
mb
20260901223923 99 125 8.0 9.0 0.00 0.00 0.00 36 1014.7
20260901223418 99 91 3.0 3.0 0.00 0.00 0.00 36 1014.7
20260901222914 99 79 4.0 6.0 0.00 0.00 0.00 37 1014.8
20260901222410 99 107 2.0 2.0 0.00 0.00 0.00 35 1014.7
20260901221906 99 94 4.0 5.0 0.00 0.00 0.00 36 1014.9
20260901221402 99 99 4.0 5.0 0.00 0.00 0.00 36 1014.7
20260901220856 98 99 1.0 1.0 0.00 0.00 0.00 37 1014.9
20260901220354 98 97 3.0 3.0 0.00 0.00 0.00 38 1015.0
20260901215854 97 85 3.0 3.0 0.00 0.00 0.00 39 1014.9
20260901215353 97 98 4.0 5.0 0.00 0.00 0.00 38 1015.0
20260901214852 97 93 5.0 7.0 0.00 0.00 0.00 39 1015.1
20260901214351 98 99 4.0 5.0 0.00 0.00 0.00 38 1015.0
20260901213850 99 131 5.0 6.0 0.00 0.00 0.00 37 1015.1
20260901213345 101 126 9.0 10.0 0.00 0.00 0.00 35 1015.2
20260901212839 102 109 8.0 10.0 0.00 0.00 0.00 35 1015.0
20260901212335 101 124 3.0 5.0 0.00 0.00 0.00 35 1015.2
20260901211831 100 114 5.0 6.0 0.00 0.00 0.00 35 1015.4
20260901211327 100 109 9.0 11.0 0.00 0.00 0.00 35 1015.4
20260901210822 99 130 9.0 10.0 0.00 0.00 0.00 35 1015.2
20260901210318 100 121 7.0 8.0 0.00 0.00 0.00 36 1015.1
20260901205814 101 98 9.0 11.0 0.00 0.00 0.00 35 1015.5
20260901205314 100 123 8.0 9.0 0.00 0.00 0.00 35 1015.5
20260901204809 100 141 6.0 8.0 0.00 0.00 0.00 35 1015.5
20260901204306 100 109 6.0 7.0 0.00 0.00 0.00 36 1015.6
20260901203800 100 75 8.0 9.0 0.00 0.00 0.00 35 1015.7
20260901203259 100 149 8.0 9.0 0.00 0.00 0.00 35 1015.6
20260901202754 100 64 4.0 5.0 0.00 0.00 0.00 34 1015.7
20260901202250 101 68 8.0 10.0 0.00 0.00 0.00 34 1015.8
20260901201745 101 44 5.0 7.0 0.00 0.00 0.00 36 1015.9
20260901201244 101 142 6.0 8.0 0.00 0.00 0.00 35 1015.7
20260901200738 100 129 5.0 6.0 0.00 0.00 0.00 35 1016.0
20260901200234 99 89 0.0 1.0 0.00 0.00 0.00 36 1015.9
20260901195732 100 44 4.0 5.0 0.00 0.00 0.00 35 1016.0
20260901195226 99 72 6.0 8.0 0.00 0.00 0.00 38 1016.0
20260901194722 97 82 2.0 2.0 0.00 0.00 0.00 40 1016.2
20260901194216 99 83 4.0 5.0 0.00 0.00 0.00 37 1016.1
20260901193712 99 75 8.0 9.0 0.00 0.00 0.00 38 1016.2
20260901193207 99 94 5.0 7.0 0.00 0.00 0.00 37 1016.1
20260901192707 97 144 1.0 1.0 0.00 0.00 0.00 39 1016.2
20260901192201 98 168 1.0 1.0 0.00 0.00 0.00 38 1016.3
20260901191658 97 14 3.0 3.0 0.00 0.00 0.00 40 1016.5
20260901191154 97 341 2.0 3.0 0.00 0.00 0.00 40 1016.2
20260901190649 95 78 4.0 6.0 0.00 0.00 0.00 43 1016.5
20260901190148 97 78 0.0 0.0 0.00 0.00 0.00 41 1016.6
20260901185647 99 87 4.0 5.0 0.00 0.00 0.00 39 1017.1
20260901185145 98 157 1.0 2.0 0.00 0.00 0.00 40 1017.0
20260901184643 97 79 4.0 5.0 0.00 0.00 0.00 42 1017.2
20260901184136 96 98 2.0 2.0 0.00 0.00 0.00 42 1017.3
20260901183632 96 74 6.0 8.0 0.00 0.00 0.00 43 1017.5
20260901183121 97 93 0.0 0.0 0.00 0.00 0.00 42 1017.6
20260901182618 98 55 4.0 5.0 0.00 0.00 0.00 40 1017.6
20260901182116 98 92 1.0 2.0 0.00 0.00 0.00 41 1017.6
20260901181611 99 54 9.0 11.0 0.00 0.00 0.00 40 1017.8
20260901181110 99 68 3.0 3.0 0.00 0.00 0.00 42 1017.9
20260901180610 99 118 5.0 6.0 0.00 0.00 0.00 39 1017.8
20260901180104 100 80 5.0 6.0 0.00 0.00 0.00 39 1017.9
20260901175557 100 85 1.0 1.0 0.00 0.00 0.00 39 1018.2
20260901175052 99 96 2.0 2.0 0.00 0.00 0.00 40 1018.2
20260901174548 98 38 4.0 6.0 0.00 0.00 0.00 40 1018.4
20260901174044 97 122 2.0 2.0 0.00 0.00 0.00 41 1018.2
20260901173538 97 110 6.0 7.0 0.00 0.00 0.00 42 1018.4
20260901173034 97 130 1.0 3.0 0.00 0.00 0.00 43 1018.6
20260901172530 94 145 1.0 2.0 0.00 0.00 0.00 47 1018.7
20260901172028 94 228 2.0 2.0 0.00 0.00 0.00 46 1018.5
20260901171527 94 216 3.0 3.0 0.00 0.00 0.00 46 1018.8
20260901171025 94 170 2.0 2.0 0.00 0.00 0.00 45 1018.8
20260901170520 95 160 3.0 3.0 0.00 0.00 0.00 44 1018.8
20260901170015 96 178 4.0 5.0 0.00 0.00 0.00 44 1018.8
20260901165509 96 114 5.0 6.0 0.00 0.00 0.00 45 1018.8
20260901165005 95 145 4.0 6.0 0.00 0.00 0.00 45 1018.8
20260901164500 95 143 5.0 6.0 0.00 0.00 0.00 44 1018.7
20260901163954 94 86 1.0 1.0 0.00 0.00 0.00 45 1018.7
20260901163450 94 80 1.0 2.0 0.00 0.00 0.00 47 1019.0
20260901162948 94 106 2.0 2.0 0.00 0.00 0.00 47 1019.0
20260901162444 94 198 4.0 5.0 0.00 0.00 0.00 48 1019.0
20260901161943 94 168 2.0 3.0 0.00 0.00 0.00 47 1019.2
20260901161443 95 169 5.0 5.0 0.00 0.00 0.00 47 1019.3
20260901160938 94 96 2.0 2.0 0.00 0.00 0.00 48 1019.2
20260901160434 93 125 0.0 1.0 0.00 0.00 0.00 50 1019.3
20260901155932 93 209 3.0 3.0 0.00 0.00 0.00 49 1019.4
20260901155427 93 107 0.0 0.0 0.00 0.00 0.00 51 1019.2
20260901154924 93 193 2.0 3.0 0.00 0.00 0.00 51 1019.2
20260901154423 93 209 4.0 5.0 0.00 0.00 0.00 51 1019.2
20260901153918 92 97 1.0 1.0 0.00 0.00 0.00 52 1019.2
20260901153418 91 238 5.0 7.0 0.00 0.00 0.00 53 1019.3
20260901152912 92 195 6.0 8.0 0.00 0.00 0.00 54 1019.3
20260901152407 92 209 3.0 3.0 0.00 0.00 0.00 53 1019.1
20260901151901 91 208 4.0 5.0 0.00 0.00 0.00 54 1019.1
20260901151356 90 245 4.0 5.0 0.00 0.00 0.00 54 1019.1
20260901150855 90 209 3.0 5.0 0.00 0.00 0.00 54 1019.2
20260901150353 90 162 2.0 2.0 0.00 0.00 0.00 55 1019.1
20260901145851 90 201 3.0 3.0 0.00 0.00 0.00 56 1019.0
20260901145350 90 176 3.0 3.0 0.00 0.00 0.00 57 1019.3
20260901144846 90 212 6.0 6.0 0.00 0.00 0.00 56 1019.3
20260901144341 89 212 3.0 3.0 0.00 0.00 0.00 57 1019.2
20260901143836 89 140 1.0 2.0 0.00 0.00 0.00 59 1019.3
20260901143332 89 246 5.0 6.0 0.00 0.00 0.00 59 1019.3
20260901142829 88 176 3.0 5.0 0.00 0.00 0.00 60 1019.5
20260901142328 88 157 4.0 5.0 0.00 0.00 0.00 61 1019.6
20260901141823 87 155 2.0 2.0 0.00 0.00 0.00 60 1019.2
20260901141318 87 186 3.0 5.0 0.00 0.00 0.00 62 1019.2
20260901140817 87 197 5.0 6.0 0.00 0.00 0.00 61 1019.3
20260901140315 86 207 4.0 5.0 0.00 0.00 0.00 62 1019.3
20260901135810 86 205 4.0 5.0 0.00 0.00 0.00 63 1019.3
20260901135311 85 198 4.0 5.0 0.00 0.00 0.00 64 1019.4
20260901134807 85 194 5.0 6.0 0.00 0.00 0.00 64 1019.5
20260901134301 84 156 4.0 6.0 0.00 0.00 0.00 65 1019.4
20260901133755 84 190 3.0 5.0 0.00 0.00 0.00 66 1019.2
20260901133255 84 203 4.0 5.0 0.00 0.00 0.00 66 1019.2
20260901132753 84 180 3.0 5.0 0.00 0.00 0.00 66 1019.2
20260901132248 83 157 3.0 3.0 0.00 0.00 0.00 67 1019.4
20260901131743 83 159 3.0 3.0 0.00 0.00 0.00 67 1019.3
20260901131242 82 140 3.0 3.0 0.00 0.00 0.00 68 1019.1
20260901130737 82 135 2.0 3.0 0.00 0.00 0.00 69 1019.2
20260901130237 81 131 1.0 2.0 0.00 0.00 0.00 71 1019.2
20260901125734 80 123 1.0 1.0 0.00 0.00 0.00 71 1019.1
20260901125230 79 125 1.0 1.0 0.00 0.00 0.00 73 1018.7
20260901124724 78 88 0.0 0.0 0.00 0.00 0.00 76 1018.9
20260901124219 77 87 0.0 1.0 0.00 0.00 0.00 76 1018.9
20260901123718 77 87 0.0 0.0 0.00 0.00 0.00 77 1018.7
20260901123214 76 88 0.0 0.0 0.00 0.00 0.00 78 1018.8
20260901122712 75 87 1.0 1.0 0.00 0.00 0.00 79 1018.9
20260901122207 75 87 1.0 1.0 0.00 0.00 0.00 80 1018.8
20260901121701 74 88 1.0 1.0 0.00 0.00 0.00 80 1018.7
20260901121157 74 88 1.0 1.0 0.00 0.00 0.00 79 1018.6
20260901120656 74 87 1.0 2.0 0.00 0.00 0.00 78 1018.7
20260901120151 74 87 1.0 1.0 0.00 0.00 0.00 75 1018.4
20260901115647 75 87 0.0 0.0 0.00 0.00 0.00 75 1018.2
20260901115143 75 86 1.0 2.0 0.00 0.00 0.00 75 1018.2
20260901114639 75 87 1.0 1.0 0.00 0.00 0.00 74 1018.1
20260901114139 76 91 1.0 1.0 0.00 0.00 0.00 74 1018.3
20260901113637 76 156 1.0 1.0 0.00 0.00 0.00 74 1018.2
20260901113133 76 156 1.0 1.0 0.00 0.00 0.00 75 1018.3
20260901112627 77 156 0.0 0.0 0.00 0.00 0.00 75 1018.3
20260901112121 77 156 0.0 0.0 0.00 0.00 0.00 74 1018.0
20260901111621 78 156 1.0 1.0 0.00 0.00 0.00 73 1017.9
20260901111119 78 156 0.0 0.0 0.00 0.00 0.00 73 1017.9
20260901110615 78 156 1.0 1.0 0.00 0.00 0.00 72 1018.0
20260901110110 78 156 1.0 2.0 0.00 0.00 0.00 72 1017.8
20260901105607 78 156 1.0 2.0 0.00 0.00 0.00 72 1018.1
20260901105100 78 156 2.0 2.0 0.00 0.00 0.00 71 1017.9
20260901104557 78 157 2.0 2.0 0.00 0.00 0.00 71 1017.9
20260901104051 78 157 1.0 2.0 0.00 0.00 0.00 71 1017.8
20260901103545 78 156 1.0 2.0 0.00 0.00 0.00 71 1017.7
20260901103042 78 156 1.0 1.0 0.00 0.00 0.00 71 1017.9
20260901102541 78 156 1.0 1.0 0.00 0.00 0.00 71 1017.9
20260901102036 79 154 1.0 2.0 0.00 0.00 0.00 70 1017.8
20260901101532 79 156 1.0 2.0 0.00 0.00 0.00 70 1017.6
20260901101031 79 156 2.0 2.0 0.00 0.00 0.00 70 1017.8
20260901100526 79 146 2.0 2.0 0.00 0.00 0.00 70 1017.9
20260901100025 78 158 2.0 2.0 0.00 0.00 0.00 70 1017.6
20260901095523 78 146 2.0 2.0 0.00 0.00 0.00 70 1018.0
20260901095021 78 145 1.0 1.0 0.00 0.00 0.00 71 1017.9
20260901094516 78 136 1.0 2.0 0.00 0.00 0.00 70 1017.9
20260901094016 78 132 0.0 0.0 0.00 0.00 0.00 69 1018.0
20260901093510 78 133 1.0 1.0 0.00 0.00 0.00 68 1018.0
20260901093005 78 107 0.0 0.0 0.00 0.00 0.00 68 1018.0
20260901092501 78 100 0.0 0.0 0.00 0.00 0.00 67 1018.1
20260901091957 78 100 0.0 0.0 0.00 0.00 0.00 67 1017.9
20260901091452 79 100 0.0 0.0 0.00 0.00 0.00 67 1018.1
20260901090946 79 100 0.0 0.0 0.00 0.00 0.00 67 1017.8
20260901090446 79 100 0.0 0.0 0.00 0.00 0.00 66 1018.0
20260901085942 79 100 0.0 0.0 0.00 0.00 0.00 66 1018.0
20260901085438 79 100 0.0 0.0 0.00 0.00 0.00 66 1017.9
20260901084934 79 100 0.0 0.0 0.00 0.00 0.00 66 1017.7
20260901084430 79 100 0.0 0.0 0.00 0.00 0.00 66 1017.7
20260901083925 79 100 0.0 0.0 0.00 0.00 0.00 66 1017.8
20260901083420 79 100 0.0 0.0 0.00 0.00 0.00 66 1017.7
20260901082918 79 100 0.0 0.0 0.00 0.00 0.00 66 1017.9
20260901082413 80 101 0.0 0.0 0.00 0.00 0.00 65 1017.9
20260901081908 80 109 1.0 1.0 0.00 0.00 0.00 64 1017.9
20260901081404 81 108 1.0 2.0 0.00 0.00 0.00 63 1017.9
20260901080903 81 118 1.0 1.0 0.00 0.00 0.00 62 1017.7
20260901080357 81 113 2.0 2.0 0.00 0.00 0.00 62 1017.7
20260901075851 82 123 2.0 2.0 0.00 0.00 0.00 61 1017.8
20260901075347 82 115 2.0 2.0 0.00 0.00 0.00 61 1017.9
20260901074842 82 129 3.0 3.0 0.00 0.00 0.00 61 1017.6
20260901074336 82 113 3.0 3.0 0.00 0.00 0.00 60 1017.7
20260901073827 82 111 3.0 3.0 0.00 0.00 0.00 60 1017.5
20260901073322 82 124 3.0 5.0 0.00 0.00 0.00 60 1017.7
20260901072818 82 127 3.0 5.0 0.00 0.00 0.00 60 1017.9
20260901072317 82 126 3.0 3.0 0.00 0.00 0.00 59 1017.9
20260901071813 82 116 4.0 5.0 0.00 0.00 0.00 60 1017.8
20260901071311 82 115 3.0 3.0 0.00 0.00 0.00 59 1017.8
20260901070810 82 105 2.0 2.0 0.00 0.00 0.00 59 1017.4
20260901070306 82 102 3.0 5.0 0.00 0.00 0.00 58 1017.7
20260901065805 83 126 2.0 2.0 0.00 0.00 0.00 58 1017.8
20260901065300 83 118 1.0 2.0 0.00 0.00 0.00 58 1017.6
20260901064756 83 114 1.0 2.0 0.00 0.00 0.00 58 1017.4
20260901064252 83 116 2.0 3.0 0.00 0.00 0.00 57 1017.5
20260901063750 83 119 2.0 2.0 0.00 0.00 0.00 57 1017.6
20260901063245 83 129 3.0 5.0 0.00 0.00 0.00 57 1017.5
20260901062741 83 113 2.0 2.0 0.00 0.00 0.00 57 1017.2
20260901062237 83 117 3.0 3.0 0.00 0.00 0.00 57 1017.6
20260901061733 82 116 3.0 3.0 0.00 0.00 0.00 58 1017.2
20260901061232 82 125 3.0 5.0 0.00 0.00 0.00 59 1017.1
20260901060728 82 114 2.0 3.0 0.00 0.00 0.00 59 1017.1
20260901060223 82 101 1.0 1.0 0.00 0.00 0.00 59 1017.3
20260901055718 82 103 3.0 3.0 0.00 0.00 0.00 59 1017.1
20260901055215 82 107 2.0 2.0 0.00 0.00 0.00 59 1017.0
20260901054712 82 112 2.0 2.0 0.00 0.00 0.00 59 1017.2
20260901054208 82 96 1.0 2.0 0.00 0.00 0.00 58 1017.0
20260901053703 83 93 2.0 2.0 0.00 0.00 0.00 57 1017.1
20260901053153 83 93 2.0 2.0 0.00 0.00 0.00 56 1017.0
20260901052648 84 100 2.0 2.0 0.00 0.00 0.00 55 1017.0
20260901052144 85 107 2.0 2.0 0.00 0.00 0.00 54 1017.0
20260901051643 85 114 2.0 2.0 0.00 0.00 0.00 53 1017.1
20260901051142 85 117 2.0 2.0 0.00 0.00 0.00 53 1016.9
20260901050638 85 129 2.0 2.0 0.00 0.00 0.00 53 1016.9
20260901050133 85 121 3.0 3.0 0.00 0.00 0.00 53 1017.0
20260901045632 85 118 3.0 5.0 0.00 0.00 0.00 53 1016.9
20260901045127 85 127 5.0 5.0 0.00 0.00 0.00 52 1016.7
20260901044623 85 119 3.0 5.0 0.00 0.00 0.00 52 1016.9
20260901044119 85 124 5.0 6.0 0.00 0.00 0.00 52 1016.8
20260901043615 85 110 5.0 6.0 0.00 0.00 0.00 52 1017.0
20260901043110 85 118 2.0 3.0 0.00 0.00 0.00 52 1016.7
20260901042609 85 128 3.0 3.0 0.00 0.00 0.00 52 1016.8
20260901042105 85 126 2.0 3.0 0.00 0.00 0.00 52 1016.7
20260901041600 84 109 2.0 3.0 0.00 0.00 0.00 52 1016.8
20260901041055 84 113 1.0 2.0 0.00 0.00 0.00 52 1016.8
20260901040554 84 108 2.0 3.0 0.00 0.00 0.00 52 1016.8
20260901040048 85 111 2.0 2.0 0.00 0.00 0.00 51 1016.7
20260901035546 85 116 2.0 2.0 0.00 0.00 0.00 51 1016.7
20260901035045 85 112 2.0 3.0 0.00 0.00 0.00 51 1016.7
20260901034540 85 114 2.0 2.0 0.00 0.00 0.00 51 1016.6
20260901034035 85 110 1.0 2.0 0.00 0.00 0.00 51 1016.6
20260901033533 85 110 2.0 2.0 0.00 0.00 0.00 50 1016.7
20260901033028 86 113 2.0 2.0 0.00 0.00 0.00 50 1016.6
20260901032526 86 109 2.0 2.0 0.00 0.00 0.00 49 1016.7
20260901032022 85 114 2.0 2.0 0.00 0.00 0.00 50 1016.6
20260901031517 85 106 2.0 2.0 0.00 0.00 0.00 50 1016.3
20260901031012 85 103 1.0 2.0 0.00 0.00 0.00 50 1016.5
20260901030506 86 105 2.0 2.0 0.00 0.00 0.00 49 1016.5
20260901030001 86 104 2.0 2.0 0.00 0.00 0.00 49 1016.3
20260901025455 86 94 2.0 2.0 0.00 0.00 0.00 48 1016.2
20260901024954 86 105 2.0 2.0 0.00 0.00 0.00 47 1016.1
20260901024449 87 106 2.0 2.0 0.00 0.00 0.00 47 1015.9
20260901023948 87 104 2.0 2.0 0.00 0.00 0.00 47 1015.9
20260901023443 87 107 1.0 1.0 0.00 0.00 0.00 46 1016.1
20260901022938 87 108 1.0 1.0 0.00 0.00 0.00 45 1015.9
20260901022434 88 108 1.0 1.0 0.00 0.00 0.00 45 1015.9
20260901021928 88 106 1.0 1.0 0.00 0.00 0.00 45 1015.8
20260901021424 88 105 1.0 1.0 0.00 0.00 0.00 45 1015.8
20260901020919 89 107 2.0 2.0 0.00 0.00 0.00 44 1015.6
20260901020415 89 113 2.0 2.0 0.00 0.00 0.00 43 1015.8
20260901015913 89 118 1.0 2.0 0.00 0.00 0.00 42 1015.6
20260901015410 90 119 3.0 3.0 0.00 0.00 0.00 42 1015.8
20260901014909 90 117 2.0 2.0 0.00 0.00 0.00 41 1015.6
20260901014406 90 120 1.0 1.0 0.00 0.00 0.00 41 1015.5
20260901013901 91 123 2.0 2.0 0.00 0.00 0.00 40 1015.5
20260901013357 91 122 2.0 2.0 0.00 0.00 0.00 40 1015.5
20260901012852 91 107 3.0 5.0 0.00 0.00 0.00 39 1015.5
20260901012346 91 116 5.0 6.0 0.00 0.00 0.00 39 1015.5
20260901011842 91 120 2.0 2.0 0.00 0.00 0.00 39 1015.4
20260901011338 91 118 2.0 2.0 0.00 0.00 0.00 39 1015.4
20260901010837 92 112 2.0 2.0 0.00 0.00 0.00 39 1015.4
20260901010331 92 121 1.0 1.0 0.00 0.00 0.00 38 1015.4
20260901005830 92 119 2.0 3.0 0.00 0.00 0.00 38 1015.3
20260901005326 93 111 1.0 2.0 0.00 0.00 0.00 37 1015.1
20260901004820 93 111 1.0 2.0 0.00 0.00 0.00 37 1015.0
20260901004314 94 111 2.0 2.0 0.00 0.00 0.00 36 1015.2
20260901003808 94 114 2.0 2.0 0.00 0.00 0.00 36 1015.1
20260901003303 95 123 2.0 2.0 0.00 0.00 0.00 35 1015.4
20260901002802 95 116 3.0 3.0 0.00 0.00 0.00 34 1015.1
20260901002258 96 118 4.0 6.0 0.00 0.00 0.00 34 1015.2
20260901001753 96 166 4.0 5.0 0.00 0.00 0.00 34 1015.0
20260901001248 96 144 4.0 5.0 0.00 0.00 0.00 34 1015.1
20260901000737 97 163 6.0 7.0 0.00 0.00 0.00 33 1015.3
20260901000233 97 178 4.0 5.0 0.00 0.00 0.00 33 1015.2
20260831235731 97 163 5.0 7.0 0.00 0.00 0.00 33 1015.2
20260831235227 98 151 6.0 8.0 0.00 0.00 0.00 33 1015.1
20260831234722 98 126 2.0 2.0 0.00 0.00 0.00 32 1015.4
20260831234221 98 101 3.0 3.0 0.00 0.00 0.00 32 1015.2
20260831233711 98 94 4.0 6.0 0.00 0.00 0.00 32 1015.5
20260831233206 98 129 5.0 6.0 0.00 0.00 0.00 32 1015.1
20260831232700 98 160 7.0 9.0 0.00 0.00 0.00 32 1015.3
20260831232157 98 149 5.0 6.0 0.00 0.00 0.00 33 1015.2
20260831231653 98 130 2.0 2.0 0.00 0.00 0.00 33 1015.1
20260831231149 98 131 4.0 6.0 0.00 0.00 0.00 33 1015.1
20260831230643 99 135 5.0 7.0 0.00 0.00 0.00 32 1015.1
20260831230139 99 154 3.0 3.0 0.00 0.00 0.00 32 1015.2
20260831225638 99 155 2.0 3.0 0.00 0.00 0.00 33 1015.2
20260831225133 100 148 3.0 5.0 0.00 0.00 0.00 32 1015.2
20260831224629 100 171 3.0 5.0 0.00 0.00 0.00 31 1015.1